This is the latest recevied weather packets stored in our database for station/object DF7ER-12. If no packets are shown the sender has not sent any weather packets the latest 10 day(s).
| Time | Temp. | Humidity | Pressure | Rain* | Wind** | Luminosity | Snow |
|---|---|---|---|---|---|---|---|
| 1788456980 | 22.78° C | 89% | 1003.1 hPa | - | - | - | - |
| 1788456680 | 23.33° C | 88% | 1003.2 hPa | - | - | - | - |
| 1788456406 | 22.78° C | 89% | 1003.1 hPa | - | - | - | - |
| 1788456080 | 23.33° C | 88% | 1003 hPa | - | - | - | - |
| 1788455780 | 22.78° C | 89% | 1003.1 hPa | - | - | - | - |
| 1788455480 | 23.33° C | 88% | 1003.1 hPa | - | - | - | - |
| 1788455180 | 23.33° C | 88% | 1003 hPa | - | - | - | - |
| 1788454880 | 23.33° C | 89% | 1002.8 hPa | - | - | - | - |
| 1788454580 | 23.33° C | 89% | 1002.8 hPa | - | - | - | - |
| 1788454280 | 23.33° C | 87% | 1002.7 hPa | - | - | - | - |
| 1788453980 | 23.33° C | 88% | 1002.7 hPa | - | - | - | - |
| 1788453680 | 23.33° C | 89% | 1002.7 hPa | - | - | - | - |
| 1788453408 | 23.33° C | 88% | 1002.9 hPa | - | - | - | - |
| 1788453080 | 22.78° C | 90% | 1002.9 hPa | - | - | - | - |
| 1788452780 | 23.33° C | 90% | 1002.9 hPa | - | - | - | - |
| 1788452480 | 23.33° C | 90% | 1002.9 hPa | - | - | - | - |
| 1788452180 | 23.33° C | 90% | 1003 hPa | - | - | - | - |
| 1788451880 | 23.33° C | 90% | 1003 hPa | - | - | - | - |
| 1788451580 | 23.33° C | 89% | 1002.8 hPa | - | - | - | - |
| 1788451280 | 23.89° C | 88% | 1002.8 hPa | - | - | - | - |
| 1788450773 | 23.33° C | 90% | 1002.9 hPa | - | - | - | - |
| 1788450473 | 23.33° C | 90% | 1003 hPa | - | - | - | - |
| 1788450173 | 23.33° C | 93% | 1002.9 hPa | - | - | - | - |
| 1788449873 | 23.33° C | 92% | 1003 hPa | - | - | - | - |
| 1788449573 | 23.33° C | 93% | 1003.1 hPa | - | - | - | - |
* Rain since midnight (hover to see other rain measurements)
** Current wind speed in m/s (hover to see current wind gust speed)